This is the latest recevied weather packets stored in our database for station/object KI8L. If no packets are shown the sender has not sent any weather packets the latest 10 day(s).
| Time | Temp. | Humidity | Pressure | Rain* | Wind** | Luminosity | Snow |
|---|---|---|---|---|---|---|---|
| 1778009405 | 16.67° C | 86% | 1010.3 hPa | 0 mm | - | 44 W/m² | - |
| 1778009104 | 16.67° C | 86% | 1010.3 hPa | 0 mm | - | 66 W/m² | - |
| 1778008801 | 16.67° C | 86% | 1010.2 hPa | 0 mm | - | 73 W/m² | - |
| 1778008499 | 17.22° C | 85% | 1010.3 hPa | 0 mm | - | 121 W/m² | - |
| 1778008196 | 17.22° C | 84% | 1010.1 hPa | 0 mm | - | 115 W/m² | - |
| 1778007891 | 17.22° C | 83% | 1010.2 hPa | 0 mm | - | 106 W/m² | - |
| 1778007587 | 17.78° C | 82% | 1010.1 hPa | 0 mm | - | 65 W/m² | - |
| 1778007284 | 17.78° C | 80% | 1010.1 hPa | 0 mm | - | 21 W/m² | - |
| 1778006980 | 18.33° C | 77% | 1010.1 hPa | 0 mm | - | 30 W/m² | - |
| 1778006677 | 18.33° C | 77% | 1010.1 hPa | 0 mm | - | 51 W/m² | - |
| 1778006373 | 18.33° C | 77% | 1010.1 hPa | 0 mm | - | 72 W/m² | - |
| 1778006071 | 18.89° C | 77% | 1010.2 hPa | 0 mm | - | 107 W/m² | - |
| 1778005767 | 18.89° C | 74% | 1010.1 hPa | 0 mm | - | 237 W/m² | - |
| 1778005464 | 18.33° C | 78% | 1010.3 hPa | 0 mm | - | 269 W/m² | - |
| 1778005160 | 17.78° C | 79% | 1010.3 hPa | 0 mm | - | 118 W/m² | - |
| 1778004858 | 17.78° C | 79% | 1010.7 hPa | 0 mm | - | 50 W/m² | - |
| 1778004555 | 17.78° C | 79% | 1010.6 hPa | 0 mm | - | 47 W/m² | - |
| 1778004251 | 17.78° C | 78% | 1010.4 hPa | 0 mm | - | 71 W/m² | - |
| 1778003948 | 17.78° C | 77% | 1010.5 hPa | 0 mm | - | 70 W/m² | - |
| 1778003644 | 17.78° C | 79% | 1010.5 hPa | 0 mm | - | 86 W/m² | - |
| 1778003341 | 17.78° C | 77% | 1010.4 hPa | 0 mm | - | 112 W/m² | - |
| 1778003038 | 17.78° C | 77% | 1010.3 hPa | 0 mm | - | 90 W/m² | - |
| 1778002734 | 17.78° C | 79% | 1010.3 hPa | 0 mm | - | 157 W/m² | - |
| 1778002431 | 17.78° C | 78% | 1010.4 hPa | 0 mm | - | 54 W/m² | - |
| 1778002128 | 17.78° C | 77% | 1010.5 hPa | 0 mm | - | 87 W/m² | - |
* Rain latest hour (hover to see other rain measurements)
** Current wind speed in m/s (hover to see current wind gust speed)